Flag for Switzerland Weather past 2 weeks in Spiez, Bern, Switzerland

Now
60 °F

Cool.


Feels Like: 60 °F
Forecast: 50 / 68 °F
Wind: 8 mph from Northeast

Location: Interlaken

Current Time: Sep 3, 2015 at 5:46:44 PM

Latest Report: Sep 3, 2015 at 5:00 PM


Visibility: N/A

Pressure: 29.95 "Hg (27.88 "Hg at 607m altitude)

Humidity: 80%

Dew point: 54 °F

Location of SpiezLocation

Historic Weather in Spiez — Graph

°F

Spiez temperature yesterday

Maximum temperature yesterday: 66 °F (at 3:00 PM)
Minimum temperature yesterday: 57 °F (at 8:00 AM)
Average temperature yesterday: 61 °F

Past Weeks' High & Low Weather Summary

 TemperatureHumidityPressure
High88 °F (Aug 30, 4:00 PM)97% (Aug 24, 1:00 AM)30.26 "Hg (Aug 24, 1:00 AM)
Low50 °F (Aug 20, 6:00 AM)35% (Aug 31, 5:00 PM)29.70 "Hg (Aug 24, 7:00 AM)
Average66 °F73%30.01 "Hg
* Reported Aug 19 4:00 PM — Sep 3 4:00 PM, Spiez, Weather by CustomWeather, © 2015

Note: Actual official high and low records may vary slightly from our data, if they occured in-between our weather recording intervals... More about our weather records

Advertising

Spiez weather history for previous 24 hours

 ConditionsComfort  
Time TempWeatherWind HumidityBarometerVisibility
4:00 PM
Thu, Sep 3
62 °FCool.10 mph75%29.94 "HgN/A
3:00 PM64 °FMild.6 mph62%29.94 "HgN/A
2:00 PM63 °FMild.7 mph66%29.94 "HgN/A
1:00 PM63 °FMild.9 mph66%29.94 "HgN/A
12:00 PM63 °FMild.12 mph67%29.94 "HgN/A
11:00 AM62 °FCool.13 mph70%29.94 "HgN/A
10:00 AM62 °FCool.8 mph77%29.95 "HgN/A
9:00 AM60 °FCool.2 mph85%29.95 "HgN/A
8:00 AM60 °FCool.No wind89%29.94 "HgN/A
7:00 AM59 °FCool.No wind92%29.95 "HgN/A
5:00 AM59 °FCool.No wind93%29.96 "HgN/A
4:00 AM59 °FCool.No wind92%29.96 "HgN/A
3:00 AM59 °FCool.No wind92%29.95 "HgN/A
2:00 AM59 °FCool.No wind92%29.96 "HgN/A
1:00 AM59 °FCool.No wind92%29.97 "HgN/A
12:00 AM60 °FCool.No wind90%29.97 "HgN/A
10:00 PM
Wed, Sep 2
60 °FCool.No wind90%29.98 "HgN/A
9:00 PM60 °FCool.2 mph87%29.97 "HgN/A
8:00 PM60 °FCool.6 mph87%29.97 "HgN/A
7:00 PM61 °FCool.7 mph86%29.97 "HgN/A
6:00 PM62 °FCool.7 mph82%29.96 "HgN/A
5:00 PM64 °FMild.5 mph78%29.95 "HgN/A
Weather by CustomWeather, © 2015

See weather overviewHow to use our weather pages